Location: ???????
(55.9142°N, 37.8256°E)
Time: 13:26:05
(UTC+00:00)

Meteor 1-19 Rocket - Pass Details

Date: 14 April 2024
Orbit: 805 x 929 km, 81.2° (Epoch: 18 May)

Event Time Altitude Azimuth Distance (km) Brightness Sun altitude
Exits shadow 00:48:10 - 191° (S) 2,705 6.4 -12.7°
Reaches altitude 10° 00:48:30 10° 191° (S) 2,577 6.3 -12.7°
Maximum altitude 00:54:26 87° 103° (ESE) 928 4.4 -12.0°
Drops below altitude 10° 01:00:31 10° 15° (NNE) 2,644 7.6 -11.3°
Sets 01:03:01 0° 16° (NNE) 3,595 8.4 -11.0°
